EN

Hourly Weather Ambazac

Today, 24 January, Sunday

Time Temperature Precipitation Wind Pressure Humidity
00:00 -1°C° 0 mm 0 mps 716 mmHg 97%
01:00 -1°C° 0 mm 0 mps 716 mmHg 96%
02:00 -1°C° 0 mm 0 mps 716 mmHg 96%
03:00 -1°C° 0 mm 0 mps 716 mmHg 96%
04:00 0°C° 0 mm 1 mps 716 mmHg 96%
05:00 0°C° 0 mm 1 mps 717 mmHg 96%
06:00 0°C° 0 mm 1 mps 717 mmHg 96%
07:00 -1°C° 0 mm 2 mps 717 mmHg 94%
08:00 0°C° 0 mm 3 mps 717 mmHg 92%
09:00 0°C° 0 mm 4 mps 717 mmHg 90%
10:00 0°C° 1.5 mm 4 mps 717 mmHg 92%
11:00 0°C° 1.5 mm 4 mps 717 mmHg 93%
12:00 +1°C° 1.5 mm 4 mps 716 mmHg 94%
13:00 +1°C° 0.7 mm 4 mps 717 mmHg 94%
14:00 0°C° 0.7 mm 4 mps 717 mmHg 93%
15:00 0°C° 0.7 mm 4 mps 717 mmHg 92%
16:00 0°C° 0.3 mm 4 mps 717 mmHg 92%
17:00 0°C° 0.3 mm 3 mps 718 mmHg 92%
18:00 0°C° 0.3 mm 3 mps 719 mmHg 92%
19:00 -1°C° 0 mm 3 mps 719 mmHg 93%
20:00 -2°C° 0 mm 2 mps 720 mmHg 93%
21:00 -2°C° 0 mm 2 mps 721 mmHg 93%
22:00 -3°C° 0 mm 2 mps 721 mmHg 94%
23:00 -3°C° 0 mm 2 mps 722 mmHg 94%

Tomorrow, 25 January, Monday

Time Temperature Precipitation Wind Pressure Humidity
00:00 -3°C° 0 mm 2 mps 722 mmHg 94%
01:00 -1°C° 0 mm 1 mps 723 mmHg 95%
02:00 -1°C° 0 mm 1 mps 723 mmHg 95%
03:00 -1°C° 0 mm 1 mps 723 mmHg 96%
04:00 -2°C° 0 mm 1 mps 724 mmHg 96%
05:00 -2°C° 0 mm 1 mps 724 mmHg 96%
06:00 -2°C° 0 mm 1 mps 724 mmHg 96%
07:00 -1°C° 0 mm 1 mps 725 mmHg 95%
08:00 0°C° 0 mm 1 mps 725 mmHg 93%
09:00 +1°C° 0 mm 1 mps 726 mmHg 91%
10:00 +1°C° 0 mm 2 mps 726 mmHg 87%
11:00 +2°C° 0 mm 2 mps 727 mmHg 83%
12:00 +3°C° 0 mm 2 mps 727 mmHg 79%
13:00 +3°C° 0 mm 2 mps 727 mmHg 83%
14:00 +3°C° 0 mm 2 mps 726 mmHg 88%
15:00 +3°C° 0 mm 2 mps 726 mmHg 93%
16:00 +2°C° 0.3 mm 2 mps 727 mmHg 94%
17:00 +2°C° 0.3 mm 2 mps 727 mmHg 96%
18:00 +3°C° 0.3 mm 1 mps 727 mmHg 98%
19:00 +3°C° 0.2 mm 1 mps 727 mmHg 98%
20:00 +3°C° 0.2 mm 1 mps 728 mmHg 98%
21:00 +3°C° 0.2 mm 1 mps 728 mmHg 98%
22:00 +3°C° 0 mm 1 mps 728 mmHg 98%
23:00 +2°C° 0 mm 1 mps 728 mmHg 98%

Day after tomorrow, 26 January, Tuesday

Time Temperature Precipitation Wind Pressure Humidity
00:00 +2°C° 0 mm 1 mps 729 mmHg 98%
01:00 +2°C° 0 mm 1 mps 729 mmHg 98%
02:00 +2°C° 0 mm 1 mps 729 mmHg 98%
03:00 +2°C° 0 mm 1 mps 729 mmHg 98%
04:00 +2°C° 0 mm 1 mps 729 mmHg 98%
05:00 +2°C° 0 mm 1 mps 729 mmHg 98%
06:00 +1°C° 0 mm 1 mps 729 mmHg 98%
07:00 +2°C° 0 mm 1 mps 729 mmHg 97%
08:00 +3°C° 0 mm 1 mps 729 mmHg 96%
09:00 +3°C° 0 mm 1 mps 729 mmHg 96%
10:00 +3°C° 0 mm 2 mps 729 mmHg 93%
11:00 +4°C° 0 mm 2 mps 729 mmHg 91%
12:00 +5°C° 0 mm 2 mps 729 mmHg 89%
13:00 +4°C° 0 mm 3 mps 729 mmHg 88%
14:00 +4°C° 0 mm 3 mps 728 mmHg 88%
15:00 +4°C° 0 mm 3 mps 728 mmHg 88%
16:00 +4°C° 0.1 mm 3 mps 727 mmHg 89%
17:00 +3°C° 0.1 mm 3 mps 727 mmHg 91%
18:00 +3°C° 0.1 mm 3 mps 727 mmHg 92%
19:00 +3°C° 0 mm 3 mps 727 mmHg 93%
20:00 +3°C° 0 mm 3 mps 728 mmHg 94%
21:00 +3°C° 0 mm 3 mps 728 mmHg 95%
22:00 +3°C° 0.1 mm 3 mps 728 mmHg 96%
23:00 +4°C° 0.1 mm 2 mps 728 mmHg 97%

27 January, Wednesday

Time Temperature Precipitation Wind Pressure Humidity
00:00 +5°C° 0.1 mm 2 mps 729 mmHg 98%
01:00 +5°C° 0 mm 2 mps 729 mmHg 98%
02:00 +6°C° 0 mm 2 mps 729 mmHg 99%
03:00 +6°C° 0 mm 2 mps 729 mmHg 99%
04:00 +6°C° 0 mm 2 mps 730 mmHg 99%
05:00 +8°C° 0 mm 1 mps 730 mmHg 99%
06:00 +8°C° 0 mm 1 mps 730 mmHg 99%
07:00 +7°C° 0 mm 1 mps 731 mmHg 98%
08:00 +7°C° 0 mm 1 mps 731 mmHg 98%
09:00 +7°C° 0 mm 1 mps 731 mmHg 98%
10:00 +8°C° 0 mm 1 mps 732 mmHg 95%
11:00 +7°C° 0 mm 2 mps 732 mmHg 93%
12:00 +8°C° 0 mm 2 mps 732 mmHg 91%
13:00 +8°C° 0 mm 2 mps 732 mmHg 91%
14:00 +8°C° 0 mm 2 mps 731 mmHg 90%
15:00 +8°C° 0 mm 2 mps 731 mmHg 90%
16:00 +7°C° 0 mm 2 mps 731 mmHg 92%
17:00 +6°C° 0 mm 2 mps 731 mmHg 94%
18:00 +5°C° 0 mm 2 mps 731 mmHg 96%
19:00 +5°C° 0 mm 2 mps 731 mmHg 96%
20:00 +5°C° 0 mm 2 mps 730 mmHg 96%
21:00 +5°C° 0 mm 2 mps 730 mmHg 96%
22:00 +5°C° 1.2 mm 3 mps 730 mmHg 96%
23:00 +5°C° 1.2 mm 3 mps 730 mmHg 97%

28 January, Thursday

Time Temperature Precipitation Wind Pressure Humidity
00:00 +6°C° 1.2 mm 4 mps 729 mmHg 97%
01:00 +6°C° 0.9 mm 4 mps 729 mmHg 97%
02:00 +7°C° 0.9 mm 4 mps 729 mmHg 97%
03:00 +8°C° 0.9 mm 3 mps 729 mmHg 97%
04:00 +8°C° 0 mm 3 mps 729 mmHg 97%
05:00 +8°C° 0 mm 3 mps 729 mmHg 97%
06:00 +8°C° 0 mm 3 mps 729 mmHg 97%
07:00 +9°C° 0 mm 3 mps 729 mmHg 96%
08:00 +8°C° 0 mm 4 mps 729 mmHg 95%
09:00 +8°C° 0 mm 4 mps 729 mmHg 94%
10:00 +10°C° 0 mm 4 mps 729 mmHg 93%
11:00 +10°C° 0 mm 4 mps 729 mmHg 91%
12:00 +9°C° 0 mm 5 mps 729 mmHg 89%
13:00 +10°C° 0 mm 4 mps 729 mmHg 90%
14:00 +10°C° 0 mm 4 mps 729 mmHg 91%
15:00 +10°C° 0 mm 3 mps 729 mmHg 92%
16:00 +10°C° 0.1 mm 3 mps 729 mmHg 93%
17:00 +9°C° 0.1 mm 3 mps 729 mmHg 94%
18:00 +9°C° 0.1 mm 2 mps 730 mmHg 96%

29 January, Friday

Time Temperature Precipitation Wind Pressure Humidity
Show more